Theta_e
346 346 339 333 334 335 334 332 326 320 325 337 335 337 336 335 332 324 319 316 313 309 307 305 304 306 308 308 307 308 308 308 309 309 310 311 312 313
338 343 342 335 337 336 334 334 333 327 322 333 334 334 332 327 325 319 316 314 311 308 306 304 303 305 306 306 305 306 306 307 307 307 307 308 309 311
344 341 341 341 334 335 335 334 333 332 326 335 334 333 325 321 320 316 315 312 310 308 306 302 303 303 303 303 304 304 304 305 305 305 305 305 307 309
344 342 338 337 340 340 334 338 334 337 330 331 331 327 322 320 316 312 311 311 310 308 303 303 303 303 303 303 304 303 303 303 303 304 304 303 305 307
346 343 339 339 339 335 336 334 333 335 335 328 331 328 320 316 313 312 311 311 309 308 302 303 303 303 302 303 302 303 303 302 302 302 302 301 302 304
345 347 342 338 338 339 336 335 334 332 331 325 329 327 326 319 316 310 308 310 308 308 303 305 302 300 300 302 302 303 303 302 302 302 301 300 300 301
333 338 339 334 328 333 330 336 337 327 323 322 322 326 324 317 317 315 311 308 309 308 304 302 301 301 300 302 300 301 301 300 300 299 299 299 299 299
325 326 327 325 324 318 319 323 331 334 330 323 322 323 329 327 325 320 312 306 304 309 306 300 301 299 303 302 298 298 298 299 299 299 299 299 299 298
330 325 326 327 322 328 317 317 319 317 320 333 329 328 328 329 329 323 318 314 311 309 306 301 299 299 300 301 298 297 297 298 298 298 298 298 298 298
333 329 325 323 324 325 329 326 327 329 329 328 334 333 333 332 333 328 326 317 310 307 308 304 300 300 300 301 298 296 296 297 297 297 298 298 298 297
330 326 321 322 317 310 328 326 325 328 317 313 308 307 305 306 319 326 317 313 309 306 308 308 300 298 298 298 299 296 295 296 296 296 297 297 297 297
326 327 314 322 310 306 331 332 327 329 330 328 328 317 315 319 309 330 325 319 317 308 311 307 302 297 294 298 299 304 302 294 296 296 297 298 297 315
321 320 323 304 303 304 311 335 330 332 325 331 328 328 330 330 326 328 330 325 321 323 316 313 305 298 300 295 297 305 306 303 303 301 296 297 297 300
320 322 321 300 298 300 308 308 307 314 332 329 325 326 326 327 328 329 329 330 329 326 316 315 303 299 298 295 297 306 304 303 303 303 307 299 297 298
322 312 307 302 298 301 301 302 300 326 329 328 325 324 326 327 331 330 328 326 324 319 314 311 304 303 301 303 302 302 300 299 301 302 306 308 309 310
306 311 310 306 302 307 313 309 322 325 326 326 325 325 327 327 326 327 322 321 316 312 311 312 306 303 302 303 303 300 301 296 299 302 306 307 308 310
306 310 309 308 309 309 309 315 318 322 325 326 326 325 323 323 323 326 322 318 317 310 307 307 306 306 305 306 302 302 298 297 300 301 305 304 306 307
304 306 307 309 310 309 310 309 311 315 322 323 323 323 321 321 322 324 325 318 318 313 307 305 302 300 300 301 304 301 298 298 299 301 304 303 303 303
303 306 307 311 311 312 312 312 311 316 320 320 321 321 322 321 318 321 323 322 317 315 310 307 303 303 301 301 302 299 300 298 299 299 303 304 303 303
305 307 308 310 311 311 312 312 312 314 315 316 317 319 320 319 319 319 320 322 319 314 307 306 305 305 303 302 298 301 291 298 299 299 300 302 298 293
304 306 308 309 310 311 312 313 313 313 313 314 315 317 317 317 318 318 319 305 312 315 308 304 308 297 303 300 295 293 294 295 301 302 301 298 299 301
301 303 307 308 310 311 311 312 313 313 314 314 315 316 316 316 317 318 318 318 320 320 318 315 308 306 303 304 297 292 291 294 296 297 296 296 302 300
301 303 304 306 308 308 308 310 311 313 314 314 314 316 317 316 317 318 319 319 320 320 319 309 308 307 307 305 294 291 290 292 294 297 298 296 297 297
Wind_Speed
10 9 7 5 4 4 4 4 4 4 2 6 4 5 5 4 9 10 10 15 17 14 12 12 7 5 4 6 7 9 10 12 13 15 17 17 18 20
9 10 8 6 5 5 5 4 4 5 4 3 5 4 6 7 9 11 11 13 14 14 12 10 7 6 7 7 7 8 10 11 12 14 16 17 18 19
12 12 13 9 7 7 6 5 4 4 4 9 4 5 5 7 8 9 8 7 7 11 11 9 5 3 2 5 7 8 9 10 10 12 15 17 18 19
16 15 15 11 11 8 7 6 5 3 6 3 4 3 4 6 7 7 6 5 6 8 9 5 3 0 5 6 8 8 8 9 9 11 15 16 17 19
18 18 17 15 13 9 9 7 6 5 6 6 6 4 3 5 4 5 5 6 4 9 5 2 6 7 8 9 10 9 9 8 8 9 14 15 16 17
17 17 16 16 14 12 11 9 7 6 5 5 6 5 4 4 4 4 4 3 5 5 2 6 4 5 6 6 9 10 10 9 10 11 11 12 14 16
10 10 2 9 13 12 10 11 10 9 7 6 5 6 6 4 6 5 4 5 4 4 4 4 2 1 3 7 10 11 10 11 12 11 11 11 12 15
6 9 11 13 11 8 10 12 12 11 8 6 5 3 1 5 6 6 6 4 3 6 6 5 3 2 1 3 8 9 10 11 11 11 11 10 11 13
14 14 13 8 13 13 8 10 11 6 1 7 5 4 2 4 5 7 8 6 4 6 6 5 4 4 3 4 4 7 8 9 11 11 11 9 9 11
12 17 21 20 14 22 16 16 15 12 9 7 7 5 5 2 7 7 6 5 6 5 6 4 5 4 3 2 4 4 6 8 10 11 11 11 11 8
13 14 17 21 27 28 19 17 17 13 12 6 9 8 6 4 3 7 7 7 4 4 8 3 5 4 4 4 3 3 2 4 8 8 11 13 13 9
8 13 21 22 23 22 18 17 16 15 13 13 10 6 6 5 6 9 7 7 4 4 7 7 7 5 3 1 3 5 6 4 2 6 9 13 18 5
5 3 7 8 18 21 16 15 15 13 12 12 11 9 9 7 8 10 8 7 6 3 10 8 7 4 2 2 2 6 3 2 1 5 7 9 12 15
5 3 4 6 5 11 14 7 6 8 10 11 10 9 8 9 8 8 9 7 5 1 14 9 5 5 4 2 3 6 3 1 2 2 4 7 4 7
4 4 5 8 10 8 7 6 6 9 11 11 10 8 8 7 6 7 9 6 7 9 10 7 6 7 4 3 5 3 6 2 2 2 5 6 6 7
2 3 6 4 2 8 6 7 9 11 12 11 10 9 6 6 8 7 6 7 6 5 8 7 6 8 3 3 4 7 5 4 3 1 4 5 6 7
6 5 3 4 3 5 7 4 8 7 11 11 8 7 7 7 9 10 9 6 6 7 6 6 7 5 5 2 5 6 4 6 5 2 3 6 7 8
3 6 8 9 10 10 9 9 9 9 12 11 11 8 8 8 10 8 10 7 7 8 8 9 9 7 3 4 7 6 3 6 6 3 2 5 7 8
9 14 13 12 11 11 11 12 12 13 13 10 11 12 13 10 8 10 12 11 6 8 9 10 10 9 10 8 3 3 5 6 6 5 3 5 7 8
14 16 16 15 13 15 12 12 11 12 12 12 14 12 13 13 13 13 12 13 11 7 8 9 10 10 11 9 6 6 3 5 6 6 7 9 9 14
13 15 14 14 15 13 13 13 13 13 13 13 13 12 14 14 14 15 14 12 14 12 10 10 11 6 9 8 6 4 2 7 2 7 9 9 8 8
11 14 14 14 14 13 13 13 13 13 13 13 13 14 13 14 15 16 15 13 13 13 11 10 12 11 7 7 8 9 6 3 7 14 14 6 2 6
13 13 16 13 11 10 11 11 12 12 13 13 13 14 14 14 15 15 15 15 12 13 10 11 10 9 8 8 9 11 10 8 5 7 5 10 12 19
Wind_Direction
199 208 239 207 219 236 246 255 294 286 214 140 99 59 55 37 93 102 108 120 112 113 111 91 73 45 13 15 357 357 2 357 359 5 8 1 1 356
210 195 218 211 213 229 236 241 253 291 291 91 87 83 70 72 97 109 116 118 120 112 106 94 82 40 355 354 346 354 357 352 355 4 9 3 359 357
210 195 203 207 216 210 218 230 231 253 264 91 108 105 77 95 101 108 120 117 118 117 111 111 96 57 5 353 336 347 353 349 352 4 6 4 355 356
203 203 204 198 212 216 212 224 227 199 276 215 132 109 86 103 116 117 125 130 127 126 128 120 114 356 29 14 0 345 356 347 351 2 3 359 353 351
203 203 203 196 197 196 217 192 203 219 211 265 123 135 120 150 125 122 136 134 131 141 153 138 95 67 42 29 14 8 2 360 355 357 1 357 353 352
229 203 197 193 195 193 198 206 212 207 205 228 156 155 160 154 161 147 153 167 153 169 168 63 95 67 38 5 25 19 18 15 9 352 358 1 358 3
314 240 250 212 191 187 194 197 180 211 195 212 211 155 169 172 204 174 167 159 165 169 180 172 155 11 25 51 19 22 11 22 24 17 17 7 1 10
185 38 347 327 320 218 223 174 176 203 217 225 225 260 140 182 173 180 152 166 198 188 178 186 158 186 68 49 38 24 15 22 27 18 20 5 11 19
199 184 190 216 266 254 212 174 188 205 320 210 256 257 254 194 172 191 192 195 177 145 170 176 186 184 217 125 52 30 21 20 30 19 20 349 349 5
217 198 194 199 211 236 201 194 201 198 202 213 218 227 210 208 180 196 193 140 95 147 180 184 172 189 184 137 82 38 19 21 32 24 15 341 333 344
211 202 192 202 201 215 195 195 201 201 181 205 87 93 75 25 205 151 164 176 163 169 190 182 169 158 185 199 176 188 79 35 46 27 17 351 333 298
237 207 202 191 202 194 194 187 199 199 195 194 201 182 177 189 195 207 171 212 163 164 178 183 155 157 185 198 196 216 198 192 118 53 36 8 355 38
226 200 204 183 183 186 199 188 197 191 186 200 201 201 182 183 205 215 222 221 201 208 150 183 166 159 86 133 192 227 247 116 54 148 113 51 12 19
225 229 159 178 164 198 191 197 133 175 192 212 213 203 202 200 188 200 205 221 204 253 154 170 142 163 130 126 176 187 171 96 35 19 35 118 43 70
161 115 78 170 172 207 211 163 163 205 218 213 217 213 212 219 151 171 171 174 94 119 160 159 134 150 166 159 143 154 156 130 54 24 64 55 34 32
218 173 176 178 266 303 193 176 208 211 218 220 221 216 198 178 183 182 181 151 128 123 158 152 122 140 131 132 160 146 152 140 118 22 84 77 65 56
179 178 185 190 194 233 256 211 207 207 212 214 223 231 201 205 205 167 163 178 160 143 147 137 138 100 76 108 136 155 134 130 124 161 124 90 66 64
214 209 199 202 204 212 207 200 218 226 217 204 209 218 234 213 222 160 162 175 194 159 144 152 148 126 85 52 15 144 148 142 137 175 152 114 99 84
222 223 226 227 217 216 225 210 214 210 216 232 221 216 221 224 218 203 176 175 195 185 157 165 172 167 162 165 114 340 151 149 148 150 171 115 106 77
241 234 232 234 226 231 220 232 223 224 213 216 220 221 223 227 223 223 206 184 175 177 160 163 186 182 170 168 144 164 354 150 173 151 135 76 68 107
241 232 238 232 230 226 231 223 223 221 220 216 214 216 219 221 220 227 217 184 173 166 180 176 193 153 113 103 96 152 173 38 175 156 133 152 150 164
227 237 232 236 231 226 221 227 217 213 216 218 212 216 216 221 220 217 222 196 179 181 191 172 150 154 162 167 144 146 152 116 73 79 65 32 174 170
222 226 228 228 227 217 221 230 236 223 210 215 215 216 211 210 223 222 216 218 186 186 189 136 159 169 182 174 146 152 161 151 145 172 109 36 71 102